Regional Weather Roundup
Issued by NWS

Home | Current Version | Previous Version | Text Only | Print | Product List | Glossary Off
Versions: 1 2 3 4 5 6 7 8 9 10 11 12 13 14 15 16 17 18 19 20 21 22 23 24 25 26 27 28

000
ASUS45 KBOI 280510
RWRID

IDAHO REGIONAL WEATHER ROUNDUP
NATIONAL WEATHER SERVICE BOISE ID
1100 PM MDT WED APR 27 2016

NOTE: "FAIR" INDICATES FEW OR NO CLOUDS BELOW 12000 FEET
WITH NO SIGNIFICANT WEATHER AND/OR OBSTRUCTIONS TO VISIBILITY

IDZ012-014-280600-
SOUTHWEST IDAHO


CITY           SKY/WX    TMP DP  RH WIND       PRES   REMARKS
BOISE          CLOUDY    53  40  61 NW12      29.79R
CALDWELL       MOCLDY    54  42  64 W9        29.81R
MOUNTAIN HOME  CLOUDY    51  38  61 NW10      29.78R
$$

IDZ016-017-280600-
SOUTHCENTRAL IDAHO


CITY           SKY/WX    TMP DP  RH WIND       PRES   REMARKS
BURLEY         MOCLDY    43  38  82 SW3       29.78S
JEROME         CLOUDY    45  40  82 SE8       29.79S
TWIN FALLS     CLOUDY    44  39  82 S14       29.78S
$$

IDZ019>023-280600-
SOUTHEAST IDAHO


CITY           SKY/WX    TMP DP  RH WIND       PRES   REMARKS
IDAHO FALLS    CLEAR     44  28  53 N13       29.82R
POCATELLO      MOCLDY    45  41  86 S7        29.81R
REXBURG        CLEAR     41  27  57 NE6       29.83R
$$

IDZ006-010-011-018-031-032-280600-
CENTRAL IDAHO MOUNTAINS


CITY           SKY/WX    TMP DP  RH WIND       PRES   REMARKS
MCCALL         MOCLDY    42  38  85 CALM      29.84R
HAILEY         PTCLDY    43  37  81 NW5       29.82R
STANLEY          N/A     35  32  88 CALM      29.86R
SALMON         CLOUDY    45  28  53 N8        29.85R
CHALLIS        PTCLDY    45  33  63 NW9       29.82R
$$

IDZ002-004-006-007-026-280600-
NORTHERN IDAHO


CITY           SKY/WX    TMP DP  RH WIND       PRES   REMARKS
LEWISTON       CLOUDY    56  38  50 W7        29.90R
LOWELL           N/A     50  45  83 N5        29.89R
COEUR D`ALENE  CLOUDY    52  41  66 NE6       29.90R
MULLAN PASS    CLEAR     36  29  75 CALM      29.93S
$$




USA.gov is the U.S. government's official web portal to all federal, state and local government web resources and services.